Time,TemperatureF,DewpointF,PressureIn,WindDirection,WindDirectionDegrees,WindSpeedMPH,WindSpeedGustMPH,Humidity,HourlyPrecipIn,Conditions,Clouds,dailyrainin,SoftwareType,DateUTC
2013-01-26 00:00:00,58.2,53.0,29.98,ENE,63,2.0,4.0,83,0.00,,,0.04,,2013-01-26 08:00:00,
2013-01-26 00:10:00,58.0,53.0,29.98,NE,49,4.0,7.0,83,0.00,,,0.00,,2013-01-26 08:10:00,
2013-01-26 00:20:00,57.9,52.0,29.98,NE,53,0.0,4.0,82,0.00,,,0.00,,2013-01-26 08:20:00,
2013-01-26 00:30:00,57.7,53.0,29.97,NE,53,0.0,1.0,83,0.00,,,0.00,,2013-01-26 08:30:00,
2013-01-26 00:40:00,57.6,52.0,29.97,NE,53,1.0,2.0,83,0.00,,,0.00,,2013-01-26 08:40:00,
2013-01-26 00:50:00,57.5,53.0,29.97,NE,53,1.0,2.0,84,0.00,,,0.00,,2013-01-26 08:50:00,
2013-01-26 01:00:00,57.2,52.0,29.97,NE,39,0.0,2.0,83,0.00,,,0.00,,2013-01-26 09:00:00,
2013-01-26 01:10:00,56.8,52.0,29.97,NE,39,1.0,2.0,84,0.00,,,0.00,,2013-01-26 09:10:00,
2013-01-26 01:20:00,56.0,52.0,29.97,NE,51,1.0,5.0,85,0.00,,,0.00,,2013-01-26 09:20:00,
2013-01-26 01:30:00,55.6,51.0,29.96,NW,320,0.0,2.0,86,0.00,,,0.00,,2013-01-26 09:30:00,
2013-01-26 01:40:00,55.4,52.0,29.96,NW,320,0.0,2.0,87,0.00,,,0.00,,2013-01-26 09:40:00,
2013-01-26 01:50:00,55.2,51.0,29.96,NW,320,1.0,2.0,87,0.00,,,0.00,,2013-01-26 09:50:00,
2013-01-26 02:00:00,55.0,52.0,29.96,NW,320,1.0,2.0,88,0.00,,,0.00,,2013-01-26 10:00:00,
2013-01-26 02:10:00,55.0,52.0,29.96,NW,320,1.0,1.0,88,0.00,,,0.00,,2013-01-26 10:10:00,
2013-01-26 02:20:00,55.0,52.0,29.96,NW,320,1.0,1.0,88,0.00,,,0.00,,2013-01-26 10:20:00,
2013-01-26 10:40:00,56.2,54.0,29.97,West,273,7.0,255.0,92,0.00,,,0.00,,2013-01-26 18:40:00,
2013-01-26 10:50:00,54.6,53.0,29.97,WNW,300,9.0,13.0,93,0.00,,,0.00,,2013-01-26 18:50:00,
2013-01-26 11:00:00,55.2,54.0,29.97,West,280,6.0,12.0,94,0.00,,,0.00,,2013-01-26 19:00:00,
2013-01-26 11:10:00,55.8,54.0,29.97,WNW,282,8.0,12.0,94,0.00,,,0.00,,2013-01-26 19:10:00,
2013-01-26 11:20:00,56.2,54.0,29.97,WNW,282,6.0,12.0,93,0.00,,,0.00,,2013-01-26 19:20:00,
2013-01-26 11:30:00,56.3,54.0,29.97,NW,325,7.0,13.0,93,0.00,,,0.00,,2013-01-26 19:30:00,
2013-01-26 11:40:00,56.2,54.0,29.97,WNW,284,6.0,14.0,92,0.00,,,0.00,,2013-01-26 19:40:00,
2013-01-26 11:50:00,56.3,54.0,29.97,WNW,288,8.0,13.0,92,0.00,,,0.00,,2013-01-26 19:50:00,
2013-01-26 12:00:00,56.6,54.0,29.96,WNW,296,12.0,14.0,92,0.00,,,0.00,,2013-01-26 20:00:00,
2013-01-26 12:10:00,55.9,54.0,29.96,WNW,285,11.0,16.0,92,0.00,,,0.00,,2013-01-26 20:10:00,
2013-01-26 12:20:00,55.4,53.0,29.96,West,274,12.0,16.0,92,0.00,,,0.00,,2013-01-26 20:20:00,
2013-01-26 12:30:00,55.5,53.0,29.95,WNW,296,12.0,17.0,92,0.00,,,0.00,,2013-01-26 20:30:00,
2013-01-26 12:40:00,55.5,53.0,29.95,West,278,7.0,15.0,92,0.00,,,0.00,,2013-01-26 20:40:00,
2013-01-26 12:50:00,55.7,53.0,29.94,WNW,292,11.0,14.0,92,0.00,,,0.00,,2013-01-26 20:50:00,
2013-01-26 13:00:00,55.7,53.0,29.94,WNW,292,11.0,14.0,92,0.00,,,0.00,,2013-01-26 21:00:00,